Bradshaw AFB, HI

11:06 PM HST on September 24, 2017 (GMT -1000)
Bradshaw Army Air Field

Weather History for PHSF - August, 2014

Change the Weather History Date:

Tuesday, August 12, 2014

  Actual Average Record
Temperature  
Mean Temperature 60 °F -  
Max Temperature 69 °F 71 °F 78 °F (1998)
Min Temperature 50 °F 51 °F 44 °F (1996)
Degree Days  
Heating Degree Days 6    
Growing Degree Days 10 (Base 50)    
Moisture  
Dew Point 59 °F    
Average Humidity 92    
Maximum Humidity 100    
Minimum Humidity 50    
Precipitation  
Precipitation 0.47 in - - ()
Sea Level Pressure  
Sea Level Pressure 30.25 in    
Wind  
Wind Speed 6 mph (SSW)    
Max Wind Speed 13 mph    
Max Gust Speed 21 mph    
Visibility 6 miles    
Events Fog , Rain    
Averages and records for this station are not official NWS values.
T = Trace of Precipitation, MM = Missing Value Source: NWS Daily Summary

Daily Weather History Graph

Daily Weather History Graph

Search for Another Location

Airport or City:

Trip Planner

Search our weather history database for the weather conditions in past years. The results will help you decide how hot, cold, wet, or windy it might be!

Date:

Astronomy

Aug. 12, 2014 Rise Set
Actual Time 6:01 AM HST 6:52 PM HST
Civil Twilight 5:38 AM HST 7:15 PM HST
Nautical Twilight 5:11 AM HST 7:42 PM HST
Astronomical Twilight 4:44 AM HST 8:09 PM HST
Moon 8:37 PM HST (8/12) 8:06 AM HST (8/12)
Length of Visible Light 13h 36m
Length of Day
12h 50m
Waning Gibbous, 93% of the Moon is Illuminated
Aug 12
Waning Gibbous
Aug 17
Last Quarter
Aug 25
New
Sep 2
First Quarter
Sep 8
Full

Hourly Weather History & Observations

Time (HST) Temp. Dew Point Humidity Pressure Visibility Wind Dir Wind Speed Gust Speed Precip Events Conditions
12:56 AM 55.0 °F 50.4 °F 84% 30.03 in 12.0 mi ESE 4.6 mph - N/A   Clear
1:56 AM 54.5 °F 50.4 °F 86% 30.01 in 11.0 mi ESE 4.6 mph - N/A   Clear
2:56 AM 53.6 °F 48.9 °F 84% 30.01 in 12.0 mi ESE 3.5 mph - N/A   Clear
3:56 AM 51.8 °F 48.4 °F 88% 30.02 in 12.0 mi ESE 1.2 mph - N/A   Clear
4:56 AM 50.5 °F 47.3 °F 89% 30.02 in 12.0 mi ESE 2.3 mph - N/A   Clear
5:56 AM 51.4 °F 46.8 °F 84% 30.03 in 12.0 mi ESE 5.8 mph - N/A   Clear
7:56 AM 66.9 °F 47.8 °F 50% 30.04 in 9.0 mi ESE 1.2 mph - N/A   Clear
8:56 AM 66.9 °F 50.7 °F 56% 30.02 in 12.0 mi WSW 5.8 mph - N/A   Clear
9:56 AM 68.5 °F 53.1 °F 58% 30.01 in 12.0 mi WSW 5.8 mph - N/A   Clear
10:56 AM 69.4 °F 57.4 °F 65% 30.01 in 12.0 mi WSW 6.9 mph 15.0 mph N/A   Scattered Clouds
11:46 AM 69.8 °F 62.6 °F 78% 30.37 in 11.0 mi West 10.4 mph 18.4 mph N/A   Mostly Cloudy
11:56 AM 68.7 °F 62.2 °F 80% 30.01 in 12.0 mi West 10.4 mph 18.4 mph N/A   Mostly Cloudy
12:31 PM 68.0 °F 62.6 °F 83% 30.36 in 10.0 mi West 10.4 mph 17.3 mph N/A   Mostly Cloudy
12:41 PM 66.2 °F 62.6 °F 88% 30.36 in 3.0 mi West 9.2 mph - N/A   Mostly Cloudy
12:50 PM 66.2 °F 64.4 °F 94% 30.36 in 4.0 mi West 9.2 mph - N/A Rain Light Rain
12:56 PM 64.8 °F 62.8 °F 93% 30.03 in 4.0 mi WSW 10.4 mph - N/A Rain Light Rain
1:01 PM 64.4 °F 62.6 °F 94% 30.35 in 3.0 mi West 11.5 mph - N/A Rain Light Rain Showers
1:06 PM 64.4 °F 62.6 °F 94% 30.36 in 2.2 mi West 10.4 mph - N/A Rain Light Rain Showers
1:16 PM 64.4 °F 62.6 °F 94% 30.35 in 2.8 mi West 10.4 mph - N/A Rain Light Rain Showers
1:21 PM 64.4 °F 64.4 °F 100% 30.35 in 5.0 mi WSW 8.1 mph - N/A Rain Light Rain Showers
1:22 PM 66.2 °F 64.4 °F 94% 30.35 in 5.0 mi West 9.2 mph - N/A Rain Light Rain Showers
1:23 PM 64.4 °F 62.6 °F 94% 30.35 in 6.0 mi West 10.4 mph - N/A   Mostly Cloudy
1:28 PM 64.4 °F 62.6 °F 94% 30.35 in 8.0 mi WSW 8.1 mph 16.1 mph N/A   Mostly Cloudy
1:33 PM 64.4 °F 62.6 °F 94% 30.35 in 6.0 mi WSW 9.2 mph 16.1 mph N/A   Mostly Cloudy
1:43 PM 64.4 °F 62.6 °F 94% 30.35 in 9.0 mi WSW 8.1 mph 16.1 mph N/A   Mostly Cloudy
1:56 PM 64.9 °F 62.2 °F 91% 30.01 in 11.0 mi WSW 11.5 mph 17.3 mph 0.02 in   Overcast
2:21 PM 64.4 °F 62.6 °F 94% 30.34 in 12.0 mi WSW 12.7 mph 20.7 mph N/A   Mostly Cloudy
2:26 PM 64.4 °F 62.6 °F 94% 30.33 in 11.0 mi WSW 12.7 mph 19.6 mph N/A   Mostly Cloudy
2:41 PM 66.2 °F 62.6 °F 88% 30.33 in 12.0 mi WSW 10.4 mph 18.4 mph N/A   Mostly Cloudy
2:56 PM 65.1 °F 62.2 °F 90% 30.00 in 11.0 mi WSW 10.4 mph 19.6 mph N/A   Scattered Clouds
3:21 PM 64.4 °F 62.6 °F 94% 30.33 in 10.0 mi West 9.2 mph 16.1 mph N/A   Mostly Cloudy
3:26 PM 64.4 °F 62.6 °F 94% 30.33 in 11.0 mi WSW 10.4 mph 16.1 mph N/A   Mostly Cloudy
3:31 PM 64.4 °F 62.6 °F 94% 30.33 in 11.0 mi WSW 8.1 mph - N/A   Mostly Cloudy
3:56 PM 66.4 °F 60.1 °F 80% 29.99 in 10.0 mi SSE 2.3 mph - N/A   Overcast
4:01 PM 68.0 °F 60.8 °F 78% 30.32 in 12.0 mi WNW 4.6 mph - N/A   Mostly Cloudy
4:11 PM 66.2 °F 62.6 °F 88% 30.32 in 12.0 mi SW 9.2 mph 17.3 mph N/A   Mostly Cloudy
4:16 PM 66.2 °F 62.6 °F 88% 30.32 in 12.0 mi SW 10.4 mph 17.3 mph N/A   Mostly Cloudy
4:21 PM 64.4 °F 62.6 °F 94% 30.32 in 11.0 mi SSW 6.9 mph - N/A   Mostly Cloudy
4:36 PM 64.4 °F 60.8 °F 88% 30.33 in 10.0 mi SSW 8.1 mph 13.8 mph N/A   Mostly Cloudy
4:37 PM 64.4 °F 60.8 °F 88% 30.32 in 10.0 mi South 5.8 mph 13.8 mph N/A Rain Light Rain Showers
4:47 PM 62.6 °F 60.8 °F 94% 30.32 in 2.0 mi SSW 6.9 mph - N/A Rain Heavy Rain Showers
4:52 PM 60.8 °F 60.8 °F 100% 30.32 in 1.0 mi South 8.1 mph - N/A Rain Heavy Rain Showers
4:56 PM 61.0 °F 60.1 °F 97% 30.01 in 1.0 mi South 6.9 mph - 0.20 in Rain Heavy Rain Showers
5:01 PM 62.6 °F 62.6 °F 100% 30.32 in 0.9 mi South 9.2 mph - N/A Rain Heavy Rain Showers
5:06 PM 62.6 °F 60.8 °F 94% 30.32 in 1.0 mi SSE 8.1 mph - N/A Rain Heavy Rain Showers
5:11 PM 62.6 °F 60.8 °F 94% 30.31 in 0.6 mi West 5.8 mph 15.0 mph N/A Fog , Rain Light Rain Showers
5:16 PM 60.8 °F 60.8 °F 100% 30.31 in 0.8 mi West 8.1 mph 13.8 mph N/A Rain Light Rain Showers
5:21 PM 62.6 °F 62.6 °F 100% 30.32 in 1.9 mi West 9.2 mph - N/A Rain Light Rain Showers
5:26 PM 62.6 °F 60.8 °F 94% 30.32 in 0.3 mi West 6.9 mph - N/A Rain Light Rain Showers
5:31 PM 60.8 °F 60.8 °F 100% 30.32 in 0.2 mi West 8.1 mph - N/A Rain Light Rain Showers
5:45 PM 60.8 °F 60.8 °F 100% 30.32 in 0.1 mi West 5.8 mph - N/A Fog Fog
5:48 PM 60.8 °F 60.8 °F 100% 30.32 in 0.1 mi West 6.9 mph - N/A Fog , Rain Light Rain Showers
5:53 PM 60.8 °F 60.8 °F 100% 30.32 in 0.1 mi WSW 6.9 mph - N/A Fog , Rain Light Rain Showers
5:56 PM 61.0 °F 60.6 °F 99% 30.01 in 0.1 mi WSW 5.8 mph - 0.01 in Fog , Rain Light Rain Showers
6:04 PM 60.8 °F 60.8 °F 100% 30.33 in 0.1 mi SW 3.5 mph - N/A Fog Fog
6:13 PM 60.8 °F 60.8 °F 100% 30.33 in 0.1 mi SSW 3.5 mph - N/A Fog Fog
6:14 PM 60.8 °F 60.8 °F 100% 30.33 in 0.1 mi SSW 3.5 mph - N/A Fog , Rain Light Rain Showers
6:19 PM 60.8 °F 59.0 °F 94% 30.33 in 0.1 mi SW 4.6 mph - N/A Rain Rain Showers
6:29 PM 60.8 °F 59.0 °F 94% 30.33 in 1.0 mi WSW 4.6 mph - N/A Rain Rain Showers
6:39 PM 59.0 °F 59.0 °F 100% 30.33 in 1.1 mi SW 2.3 mph - N/A Rain Rain Showers
6:56 PM 59.5 °F 59.2 °F 99% 30.02 in 1.6 mi SSW 2.3 mph - 0.22 in Rain Light Rain Showers
7:01 PM 59.0 °F 59.0 °F 100% 30.34 in 2.0 mi SSW 4.6 mph - N/A Rain Light Rain Showers
7:11 PM 59.0 °F 59.0 °F 100% 30.34 in 1.9 mi SSW 5.8 mph - N/A Rain Light Rain Showers
7:16 PM 59.0 °F 59.0 °F 100% 30.35 in 1.9 mi SSW 3.5 mph - N/A Rain Light Rain Showers
7:21 PM 59.0 °F 59.0 °F 100% 30.35 in 2.0 mi SSW 3.5 mph - N/A Rain Light Rain Showers
7:26 PM 59.0 °F 59.0 °F 100% 30.35 in 1.8 mi South 2.3 mph - N/A Rain Light Rain Showers
7:36 PM 59.0 °F 59.0 °F 100% 30.35 in 1.2 mi SE 2.3 mph - N/A Rain Light Rain Showers
7:51 PM 59.0 °F 59.0 °F 100% 30.35 in 2.5 mi SE 5.8 mph - N/A Rain Light Rain Showers
7:52 PM 59.0 °F 59.0 °F 100% 30.35 in 2.5 mi SE 5.8 mph - N/A   Partly Cloudy
7:53 PM 59.0 °F 59.0 °F 100% 30.35 in 2.5 mi SE 4.6 mph - N/A Rain Light Rain Showers
7:56 PM 58.5 °F 58.1 °F 99% 29.99 in 2.5 mi SSE 5.8 mph - 0.02 in Rain Light Rain Showers
8:01 PM 57.2 °F 57.2 °F 100% 30.35 in 2.5 mi SSE 6.9 mph - N/A Rain Light Rain Showers
8:06 PM 57.2 °F 57.2 °F 100% 30.35 in 3.0 mi SE 5.8 mph - N/A Rain Light Rain Showers
8:15 PM 57.2 °F 57.2 °F 100% 30.36 in 7.0 mi SSE 4.6 mph - N/A   Mostly Cloudy
8:40 PM 57.2 °F 55.4 °F 94% 30.36 in 12.0 mi SE 4.6 mph - N/A   Overcast
8:56 PM 56.3 °F 55.2 °F 96% 30.00 in 10.0 mi SE 3.5 mph - N/A   Overcast
9:06 PM 55.4 °F 53.6 °F 94% 30.36 in 12.0 mi SSE 5.8 mph - N/A   Mostly Cloudy
9:56 PM 55.8 °F 53.6 °F 92% 30.01 in 12.0 mi ESE 3.5 mph - N/A   Mostly Cloudy
10:16 PM 57.2 °F 53.6 °F 88% 30.38 in 12.0 mi SE 6.9 mph - N/A   Mostly Cloudy
10:26 PM 57.2 °F 55.4 °F 94% 30.38 in 12.0 mi SE 5.8 mph - N/A   Mostly Cloudy
10:36 PM 57.2 °F 53.6 °F 88% 30.38 in 12.0 mi SE 5.8 mph - N/A   Scattered Clouds
10:56 PM 55.6 °F 54.1 °F 95% 30.02 in 12.0 mi SE 4.6 mph - N/A   Partly Cloudy
11:56 PM 54.7 °F 53.2 °F 95% 30.01 in 12.0 mi ESE 2.3 mph - N/A   Clear